Simultaneous Nadir Overpasses (SNOs) Predictions

Prediction of SNOs between GOES-16 and TERRA Satellite Orbit:

Table of predicted SNOs for the next 14.0 days since TLE Epoch: 3/4/2023
Index Date Time (GOES-16) GOES-16 Lat,Lon TERRA Lat,Lon Distance(km) Time Diff (sec)
1 03/04/2023 15:28:14 0.05, -75.20 0.86, -79.17 450.69 80
2 03/06/2023 15:12:14 0.05, -75.21 0.10, -75.29 10.85 80
3 03/08/2023 14:53:35 0.05, -75.23 -0.75, -71.44 430.93 80
4 03/09/2023 03:16:40 -0.05, -75.22 -0.32, -76.39 133.46 80
5 03/11/2023 02:58:00 -0.05, -75.25 0.52, -72.53 308.60 80
6 03/11/2023 15:20:56 0.05, -75.26 0.54, -77.45 249.47 80
7 03/13/2023 15:02:15 0.05, -75.29 -0.28, -73.58 192.95 80
8 03/14/2023 03:25:20 -0.05, -75.29 -0.76, -78.54 371.01 80
9 03/16/2023 03:06:39 -0.05, -75.31 0.10, -74.68 71.65 80
10 03/16/2023 15:26:55 0.05, -75.32 0.94, -79.60 486.55 80
